Location: Homer
(59.6430°N, 151.5480°W)
Time: 02:06:45
(UTC-08:00)

Daily predictions for brighter satellites

Satellite Brightness Start Highest point End
(mag) Time Altitude Azimuth Time Altitude Azimuth Time Altitude Azimuth
Cosmos 1777 Rocket 4.4 00:01:18 10° NNW 00:06:31 57° NE 00:10:21 18° SE
Cosmos 2237 Rocket 3.5 00:05:52 19° SE 00:07:50 23° ESE 00:12:07 10° NE
USA 215 3.3 00:03:24 10° ESE 00:09:56 68° SSW 00:16:29 10° W
DNEPR-1 R/B 3.6 00:06:09 10° WNW 00:10:24 71° SW 00:13:12 23° SE
Cosmos 1743 2.6 00:08:21 19° S 00:11:00 78° ESE 00:14:51 10° NNE
NOSS 3-1 (C) 4.0 00:05:25 10° W 00:11:48 69° NNW 00:19:10 10° ENE
Cosmos 839 Rocket 4.4 00:07:43 10° WSW 00:13:54 72° NNW 00:20:56 10° ENE
Cosmos 1975 3.2 00:10:41 10° SSW 00:14:40 63° WNW 00:18:40 10° N
Cosmos 405 3.5 00:11:32 10° SSW 00:15:05 60° WNW 00:18:41 10° N
GP-B 3.1 00:10:59 10° N 00:15:29 87° W 00:18:37 19° S
Cosmos 1745 Rocket 3.9 00:09:51 11° S 00:15:46 87° ESE 00:22:00 10° NNE
H-2A R/B 3.5 00:13:06 10° SSW 00:17:33 31° W 00:21:57 10° NNW
NOSS 2-3 (C) 4.1 00:14:12 10° SW 00:19:23 80° SE 00:25:51 10° ENE
Cosmos 1825 Rocket 3.6 00:16:54 10° N 00:21:15 71° ENE 00:23:37 26° SSE
Cosmos 2344 4.4 00:12:45 10° WNW 00:21:30 75° NNE 00:33:25 10° E
Cosmos 2297 3.7 00:16:49 10° NW 00:22:31 90° SW 00:26:16 22° SE
Cosmos 1544 Rocket 4.0 00:19:41 10° SSW 00:24:07 64° WNW 00:28:35 10° N
Terra 2.8 00:25:45 15° SSW 00:29:23 41° W 00:33:56 10° NNW
Cosmos 1271 Rocket 4.4 00:30:14 17° ESE 00:31:01 18° E 00:33:39 10° NE
ATLAS CENTAUR R/B 1.0 00:29:19 10° WNW 00:33:01 74° SW 00:34:38 32° SE
PSLV R/B 3.2 00:33:04 39° SSW 00:33:48 56° WSW 00:36:32 10° NNW
Cosmos 1758 Rocket 3.5 00:31:47 10° NNW 00:36:09 75° ENE 00:38:19 29° SSE
Cosmos 1455 Rocket 3.7 00:32:32 11° SSW 00:36:49 57° WNW 00:41:16 10° N
Cosmos 2278 Rocket 2.8 00:31:56 10° NW 00:37:20 45° WSW 00:40:45 21° S
Cosmos 1302 Rocket 4.1 00:37:00 10° SSW 00:42:19 84° WNW 00:47:38 10° NNE
Aureole 2 Rocket 2.3 00:42:05 38° S 00:43:05 59° ESE 00:46:12 10° NE
Cosmos 1844 Rocket 4.5 00:40:18 10° NW 00:44:33 22° WSW 00:48:38 10° SSW
Cosmos 1992 Rocket 4.2 00:43:36 25° S 00:46:22 51° ESE 00:51:26 10° NE
Cosmos 2322 Rocket 3.4 00:42:19 10° WSW 00:47:47 45° NW 00:53:16 10° NE
Cosmos 2237 4.2 00:43:14 10° SW 00:48:57 88° NW 00:54:43 10° NE
Cosmos 968 Rocket 3.9 00:44:48 10° NW 00:49:47 51° WSW 00:52:31 25° S
DELTA 2 DEB (DPAF) 4.5 00:49:47 26° S 00:52:11 58° WSW 00:56:39 10° NNW
CZ-4C R/B 3.5 00:53:54 32° SSW 00:55:14 53° WSW 00:58:41 10° NNW
GEOS 3 Rocket 3.8 00:51:30 13° ESE 00:56:16 76° NNE 01:01:37 10° WNW
Cosmos 374 Rocket 4.4 00:51:49 10° WNW 00:56:23 64° SW 00:57:56 34° SSE
Cosmos 2184 Rocket 4.4 00:53:10 25° SSE 00:56:30 47° E 01:02:25 10° NNE
SL-16 R/B 3.6 00:53:26 10° WSW 00:58:50 42° NNW 01:04:14 10° NE
OPS 6432 4.3 00:59:04 47° SE 00:59:04 47° SE 01:01:52 10° ENE
Nadezhda 3 Rocket 4.4 00:52:48 10° N 00:59:04 57° ENE 01:03:05 23° SE
NOSS 2-3 (D) 4.4 00:54:00 10° WSW 00:59:17 82° NNW 01:05:56 10° ENE
Cosmos 1898 Rocket 4.4 00:54:35 10° NNW 00:59:42 44° NE 01:03:55 14° ESE
Cosmos 2074 Rocket 4.4 00:56:30 25° SSE 00:59:57 51° E 01:05:58 10° NNE
Meteor 2-5 Rocket 3.8 00:54:40 10° NNW 01:00:35 86° ENE 01:04:00 27° SSE
Meteor 1-24 Rocket 4.0 00:55:38 10° NNW 01:01:21 64° ENE 01:04:51 25° SE
Cosmos 1437 Rocket 3.7 00:58:28 14° SW 01:01:40 47° WNW 01:05:30 10° N
CZ-2C R/B 3.2 00:57:27 10° NNE 01:02:35 44° E 01:05:04 27° SSE
RESURS DK-1 3.5 01:03:18 26° ESE 01:03:38 27° ESE 01:07:10 10° ENE
ALOS 2 2.6 01:01:40 32° SSE 01:03:41 80° ENE 01:08:07 10° NNW
SeaSat 1 4.4 01:00:04 10° NNE 01:04:26 32° NNW 01:08:47 10° W
Meteor 2-9 Rocket 4.2 01:01:29 20° SSW 01:05:35 86° WNW 01:11:15 10° NNE
Cosmos 2219 Rocket 2.1 01:02:53 18° SSW 01:07:07 71° ESE 01:12:46 10° NE
Cosmos 2322 4.2 01:02:15 10° SW 01:07:53 63° NW 01:13:34 10° NE
COSMOS 2455 3.1 01:03:05 10° NW 01:08:59 57° SW 01:12:07 28° SSE
CZ-4 R/B 3.8 01:08:03 10° NNE 01:12:49 84° WNW 01:15:44 24° SSW
ERBS 2.4 01:09:46 10° W 01:13:12 55° S 01:13:49 46° SE
Cosmos 1184 Rocket 3.5 01:11:45 10° NNW 01:14:57 45° W 01:15:46 36° SW
SL-16 R/B 3.2 01:13:17 25° SE 01:15:02 30° ESE 01:19:54 10° NE
Cosmos 1378 3.1 01:11:47 10° NNW 01:15:32 75° WSW 01:16:43 41° S
Cosmos 1689 Rocket 4.3 01:15:03 17° E 01:16:20 21° ENE 01:18:48 10° N
COSMOS 2428 2.8 01:11:03 10° SW 01:16:49 80° NW 01:22:35 10° NE
IKONOS-2 4.5 01:15:08 35° SSE 01:16:55 85° ENE 01:21:14 10° NNW
Cosmos 1953 Rocket 4.0 01:12:49 10° NNW 01:17:14 55° W 01:19:16 29° SSW
Meteor 2-8 Rocket 4.5 01:11:24 10° NNW 01:17:37 82° ENE 01:21:08 28° SSE
Cosmos 1674 4.3 01:14:17 10° N 01:17:39 28° ENE 01:19:33 19° ESE
CZ-4B R/B 3.3 01:13:28 10° NNE 01:18:17 84° ESE 01:20:47 29° SSW
Cosmos 1707 3.0 01:17:08 10° NNW 01:20:58 59° W 01:22:16 37° SSW
H-2A R/B 3.8 01:18:34 16° SW 01:21:01 25° W 01:24:43 10° NW
Cosmos 2360 Rocket 3.1 01:15:55 10° WSW 01:21:25 50° NW 01:26:56 10° NE
Cosmos 1726 Rocket 3.6 01:19:50 35° S 01:21:38 68° E 01:26:05 10° NNE
CZ-2C R/B 3.2 01:19:41 29° SSW 01:21:57 57° WSW 01:26:47 10° NNW
Cosmos 1818 3.5 01:17:38 13° SW 01:22:33 70° SE 01:28:00 10° ENE
Cosmos 1709 Rocket 4.2 01:19:15 18° SSW 01:23:54 69° WNW 01:30:12 10° NNE
Cosmos 1980 Rocket 4.4 01:19:09 10° WNW 01:23:55 28° NNW 01:28:43 10° NE
Meteor 1-15 Rocket 4.3 01:21:44 24° SSW 01:25:26 89° WNW 01:31:25 10° NNE
ATLAS 2AS CENTAUR R/B 3.2 01:18:44 10° WSW 01:26:50 82° NNW 01:35:01 10° ENE
Elektron 1 4.1 01:22:34 10° WNW 01:26:55 59° SSW 01:27:29 49° SSE
Cosmos 1340 Rocket 3.0 01:23:18 10° NNW 01:27:11 60° W 01:28:28 38° SSW
SL-08 ROCKET BODY 4.3 01:23:50 26° S 01:27:17 87° ESE 01:33:10 10° NNE
Lacrosse 5 1.8 01:22:20 10° WSW 01:27:18 58° SSE 01:32:18 10° E
USA 229 DEB 4.0 01:22:27 10° WNW 01:29:29 72° NNE 01:36:42 10° E
Cosmos 1943 Rocket 2.8 01:24:05 10° NW 01:29:30 53° NE 01:34:38 11° ESE
USA 229 4.0 01:22:34 10° WNW 01:29:35 72° NNE 01:36:48 10° E
Cosmos 2333 Rocket 2.1 01:26:11 20° SSW 01:30:14 80° SE 01:35:56 10° NE
Cosmos 489 Rocket 4.4 01:24:30 10° NNW 01:30:45 85° WSW 01:34:21 27° SSE
deb Chang Zheng 4 3.9 01:27:32 10° NNE 01:31:56 65° WNW 01:34:28 24° SW
NOSS 3-1 (A) 4.2 01:27:24 10° W 01:33:59 65° N 01:41:35 10° E
CENTAUR R/B 3.6 01:27:45 10° WNW 01:34:46 41° SW 01:38:54 25° S
NOSS 3-4 (A) 3.6 01:32:09 20° SSW 01:36:36 58° SE 01:43:09 10° ENE
NOSS 3-4 (C) 3.6 01:32:19 20° SSW 01:36:43 58° SE 01:43:15 10° ENE
Meteor 1-4 Rocket 3.3 01:35:13 26° SW 01:37:03 52° WNW 01:40:48 10° N
Cosmos 2369 Rocket 2.2 01:40:07 10° NW 01:45:54 83° NE 01:49:38 23° SE
Cosmos 1606 Rocket 3.7 01:44:50 30° SSW 01:46:57 70° WNW 01:51:25 10° N
BREEZE-M DEB (TANK) 3.9 01:39:13 10° WSW 01:47:38 30° SSW 01:47:55 30° S
Cosmos 1356 4.5 01:45:19 10° N 01:48:40 39° ENE 01:49:56 28° ESE
Mayak -0.8 01:46:47 10° NNE 01:50:50 47° E 01:52:03 36° SE
Cosmos 2237 Rocket 2.1 01:47:40 24° SSW 01:51:11 81° SE 01:56:52 10° NE
In-Cosmos 22 4.0 01:46:33 10° NNW 01:51:52 79° WSW 01:54:23 32° S
USA 215 3.6 01:50:27 26° SSE 01:53:38 43° SSW 01:59:50 10° WNW
Cosmos 2154 Rocket 4.1 01:52:14 29° SSE 01:55:28 64° E 02:01:37 10° NNE
ATLAS CENTAUR R/B 3.6 01:44:13 10° WNW 01:56:17 41° SW 01:58:38 29° S
CZ-4B R/B 1.7 01:56:35 43° ESE 01:57:14 53° ENE 02:00:19 10° N
Cosmos 1980 3.7 01:53:20 21° SW 01:57:14 90° SE 02:02:59 10° NE
Cosmos 1356 Rocket 3.4 01:56:07 10° NNW 02:00:06 63° WSW 02:01:17 42° SSW
CZ-3A R/B 4.4 01:37:32 10° W 02:02:11 65° SSW 02:08:32 10° SE
Cosmos 389 Rocket 2.5 02:02:17 50° S 02:03:11 84° ESE 02:06:52 10° NNE
NOSS 3-1 (C) 4.1 01:56:40 10° WNW 02:03:23 70° NNE 02:11:09 10° E
Cosmos 1271 Rocket 2.8 02:05:25 40° SW 02:06:39 70° WNW 02:10:27 10° NNE
Cosmos 2058 Rocket 3.2 02:07:49 33° SSW 02:09:43 67° WNW 02:14:08 10° N
Cosmos 858 Rocket 4.5 02:05:01 10° NNW 02:10:23 90° ESE 02:13:18 28° SSE
ATLAS CENTAUR R/B 3.0 02:08:57 10° W 02:10:52 17° WSW 02:10:52 17° WSW
SL-24 R/B 4.0 02:12:16 37° SSE 02:13:56 87° WSW 02:18:26 10° NNW
Meteor 2-15 4.5 02:07:50 10° NNW 02:14:01 78° ENE 02:17:35 27° SSE
Cosmos 2228 3.3 02:14:38 32° SW 02:16:32 64° WNW 02:20:57 10° N
Aureole 2 Rocket 4.5 02:15:48 10° W 02:18:30 22° NW 02:21:02 10° NNE
Cosmos 2278 Rocket 4.4 02:18:25 10° WNW 02:20:04 11° W 02:21:43 10° WSW
Cosmos 1544 3.1 02:20:24 47° SSE 02:21:17 68° E 02:24:59 10° NNE
NOSS 0 Rocket 4.1 02:17:01 14° SW 02:22:29 74° NW 02:28:46 10° NE
Spot 2 4.2 02:23:27 10° NNE 02:27:42 66° ESE 02:29:20 37° S
SL-8 Rocket 4.4 02:24:15 26° SSE 02:27:43 55° E 02:33:45 10° NNE
Cosmos 1470 4.1 02:27:20 24° SE 02:28:38 29° E 02:32:02 10° NNE
CZ-4C R/B 3.6 02:28:15 41° SW 02:29:02 48° W 02:32:41 10° NNW
H-2A R/B 3.8 02:29:37 10° NE 02:32:54 26° E 02:34:13 21° SE
Cosmos 2322 Rocket 4.4 02:28:21 10° WNW 02:33:10 27° N 02:38:00 10° NE
Cosmos 2263 4.1 02:28:09 10° NW 02:33:47 72° WSW 02:36:57 27° SSE
GEOS 3 Rocket 4.0 02:32:35 31° S 02:34:36 46° SW 02:39:43 10° WNW
Cosmos 1076 Rocket 3.4 02:30:18 10° NNW 02:34:39 89° WSW 02:36:21 37° SSE
Cosmos 962 Rocket 4.5 02:31:38 29° S 02:35:02 84° E 02:41:23 10° NNE
Cosmos 2218 Rocket 4.5 02:32:20 25° SSE 02:36:03 55° E 02:42:16 10° NNE
Cosmos 2344 4.4 02:27:10 10° WNW 02:36:36 71° SW 02:49:35 10° SE
NOSS 2-2 (D) 4.0 02:36:05 37° S 02:37:24 49° SE 02:42:31 10° ENE
Cosmos 1937 Rocket 3.5 02:33:05 10° NW 02:38:23 71° WSW 02:41:03 30° SSE
SL-16 R/B 3.7 02:34:03 10° ESE 02:39:48 41° NE 02:45:34 10° NNW
Cosmos 2084 Rocket 3.6 02:39:24 42° SSE 02:40:01 45° SE 02:43:47 10° ENE
ALOS 2 4.3 02:39:04 17° WSW 02:40:34 20° W 02:43:53 10° NW
Meteor 1-22 Rocket 4.4 02:37:15 28° SSW 02:40:41 81° WNW 02:46:46 10° NNE
RESURS DK-1 2.6 02:39:12 27° WSW 02:41:24 70° NW 02:45:36 10° NE
Cosmos 1898 Rocket 3.7 02:36:49 10° NW 02:41:59 54° WSW 02:44:10 32° S
CZ-2C R/B 3.3 02:37:52 10° NNE 02:43:00 48° WNW 02:46:35 19° SW
Cosmos-2242 4.4 02:41:36 20° SE 02:43:44 30° E 02:47:35 10° NNE
Iridium 4 Rocket 3.1 02:42:14 36° SSW 02:44:01 72° W 02:48:18 10° N
SL-16 R/B 4.4 02:39:33 10° WNW 02:44:20 27° N 02:49:09 10° NE
TIMED 4.4 02:40:39 10° NNW 02:45:04 88° WSW 02:47:15 29° SSE
Cosmos 1689 Rocket 2.6 02:47:50 46° WSW 02:48:04 47° W 02:51:08 10° NNW
Cosmos 371 Rocket 4.5 02:46:10 23° SE 02:48:08 31° ESE 02:52:24 10° NE
Cosmos 1805 3.2 02:47:11 42° SSW 02:48:27 88° WNW 02:52:25 10° NNE
Cosmos 1603 4.1 02:47:31 29° S 02:50:03 48° ESE 02:55:27 10° NE
Cosmos 2219 Rocket 3.3 02:46:04 10° WSW 02:51:28 43° NNW 02:56:52 10° NE
Cosmos 1953 2.4 02:50:17 39° S 02:51:37 68° E 02:55:36 10° NNE
Cosmos 1125 Rocket 3.9 02:47:00 10° NNW 02:52:12 63° NE 02:57:24 10° SE
Cosmos 2058 4.2 02:48:24 10° N 02:52:15 37° ENE 02:55:23 14° SE
Cosmos 1674 3.2 02:49:44 10° NNW 02:53:29 47° W 02:54:27 37° SW
PSLV R/B 4.5 02:51:01 21° SE 02:53:32 55° ENE 02:57:34 10° N
Cosmos 1570 Rocket 4.1 02:51:23 31° S 02:53:48 64° ESE 02:59:00 10° NE
COSMOS 2455 4.5 02:50:05 10° WNW 02:53:49 17° WSW 02:55:14 16° WSW
Cosmos 1766 3.8 02:53:48 32° SW 02:55:21 51° WNW 02:59:18 10° N
Cosmos 2341 Rocket 4.0 02:53:36 27° SSW 02:57:13 77° WNW 03:03:31 10° NNE
NOSS 2-2 (C) 3.8 02:55:53 34° SSW 02:57:42 62° SE 03:03:04 10° ENE
SL-16 R/B 2.2 02:55:08 24° SW 02:58:43 81° NW 03:04:26 10° NE
Cosmos 1339 Rocket 4.4 02:53:01 10° NNW 02:59:10 82° W 03:02:57 25° S
Cosmos 990 Rocket 4.1 02:54:50 10° NW 03:00:00 57° WSW 03:02:25 30° S
Okean 3 Rocket 4.1 02:57:13 10° NNW 03:01:36 48° W 03:03:15 32° SSW
COSMOS 2428 4.3 02:56:38 10° W 03:01:53 35° NNW 03:07:07 10° NE
KORONAS-FOTON 4.2 03:00:43 10° NNW 03:04:32 50° W 03:05:37 37° SW
Landsat 5 4.2 03:03:24 31° SW 03:04:40 39° W 03:08:46 10° NNW
Cosmos 2150 Rocket 4.2 03:00:17 10° NW 03:05:17 51° WSW 03:07:31 30° S
Cosmos 1758 3.3 03:04:47 37° SSW 03:06:20 81° WNW 03:10:29 10° NNE
Cosmos 1818 4.2 03:00:59 10° W 03:06:22 57° NNW 03:11:46 10° ENE
SAR-Lupe-2 4.3 03:05:54 35° SW 03:06:32 38° W 03:09:58 10° NNW
Cosmos 2360 Rocket 4.2 03:01:49 10° WNW 03:06:39 28° NNW 03:11:28 10° NE
Cosmos 1980 Rocket 4.3 03:04:43 10° NW 03:09:34 29° NNE 03:14:25 10° ENE
Cosmos 1812 Rocket 3.9 03:07:41 30° SW 03:09:37 55° WNW 03:13:57 10° N
NOSS 5 (C) 4.5 03:08:15 27° W 03:09:46 66° NNW 03:13:01 10° ENE
Lacrosse 5 1.8 03:05:01 10° W 03:10:03 65° S 03:15:05 10° ESE
Resurs 1-4 Rocket 4.2 03:08:01 10° NE 03:11:42 19° E 03:15:23 10° SE
Cosmos 1943 Rocket 2.4 03:08:00 10° NW 03:13:20 51° WSW 03:16:06 27° S
Cosmos 2333 Rocket 3.4 03:09:41 10° W 03:15:01 40° NNW 03:20:22 10° NE
Cosmos 1727 Rocket 4.0 03:12:05 10° NNW 03:18:13 65° W 03:21:52 25° S
ATLAS 2AS CENTAUR R/B 3.5 03:10:29 10° W 03:18:37 67° N 03:26:37 10° E
Cosmos 1656 Rocket 3.6 03:13:10 10° NW 03:18:54 81° SW 03:24:24 11° SSE
Meteor 2-21 Rocket 4.5 03:15:23 26° S 03:19:07 86° ESE 03:25:24 10° NNE
USA 229 DEB 3.7 03:13:36 10° WNW 03:20:36 67° SW 03:27:47 10° SE
USA 229 3.7 03:13:43 10° WNW 03:20:43 67° SW 03:27:52 10° SE
SL-08 R/B 3.5 03:18:50 18° SSE 03:22:20 75° ENE 03:27:10 10° NNW
NOSS 2-2 (E) 3.8 03:19:56 24° SW 03:22:42 83° SSE 03:28:27 10° ENE
Cosmos 2366 rocket 4.0 03:19:30 25° S 03:23:24 88° ESE 03:29:49 10° NNE
USA 32 4.5 03:19:52 10° N 03:25:06 60° ENE 03:29:29 15° SSE
Cosmos 1697 Rocket 4.4 03:20:18 10° NW 03:25:30 35° NNE 03:30:42 10° E
NOSS 3-1 (A) 3.9 03:18:32 10° WNW 03:25:31 86° NNE 03:33:32 10° ESE
Cosmos 1766 Rocket 3.9 03:21:46 10° NNW 03:26:04 50° W 03:27:47 31° SSW
CZ-2D R/B 4.0 03:22:04 10° NE 03:26:21 23° E 03:30:35 10° SE
Mayak 0.0 03:22:41 10° N 03:26:25 32° WNW 03:28:42 19° WSW
NOSS 3-4 (A) 3.8 03:21:04 10° WSW 03:27:30 74° NNW 03:34:22 10° ENE
NOSS 3-4 (C) 3.8 03:21:10 10° WSW 03:27:37 74° NNW 03:34:29 10° ENE
Cosmos 2151 3.1 03:23:33 10° NNW 03:27:47 74° ENE 03:30:30 22° SSE
Iridium 40 4.2 03:28:15 59° SE 03:28:29 63° E 03:31:03 10° N
Cosmos 2369 Rocket 3.2 03:24:35 10° NW 03:29:28 30° WSW 03:31:23 24° SW
CZ-4B R/B 3.2 03:30:08 17° W 03:30:12 17° W 03:32:24 10° NW
Meteor 2-16 Rocket 4.4 03:27:51 25° S 03:31:40 87° ESE 03:37:48 10° NNE
Cosmos 1743 Rocket 3.5 03:28:26 10° NNW 03:32:57 80° WSW 03:35:26 26° S
Cosmos 1408 Rocket 4.0 03:28:51 10° NNW 03:33:04 47° W 03:34:48 30° SSW
Cosmos 2237 Rocket 3.4 03:30:30 10° W 03:35:47 39° NNW 03:41:06 10° NE
Cosmos 1626 2.1 03:32:06 10° NNW 03:35:52 84° ENE 03:37:52 26° SSE
PSLV R/B 3.7 03:39:28 10° NNE 03:44:12 82° WNW 03:46:42 27° SSW
Cosmos 1733 3.5 03:45:08 30° SW 03:46:47 55° WNW 03:50:34 10° N
ADEOS Rocket 3.2 03:43:18 10° NNE 03:48:48 57° ESE 03:52:51 18° S
SL-14 R/B 4.1 03:45:05 10° NNW 03:48:52 38° W 03:50:22 28° SW
Cosmos 1943 3.4 03:46:57 24° SSW 03:50:26 66° ESE 03:56:05 10° NE
NOSS 3-1 (C) 3.9 03:47:35 10° WNW 03:54:37 73° SW 04:02:38 10° SE
Helios 1A Rocket 3.3 03:50:46 10° NNE 03:54:49 58° ESE 03:57:19 22° S
Cosmos 2208 Rocket 4.3 03:52:12 21° SW 03:55:52 65° NW 04:01:21 10° NNE
Cosmos 1400 Rocket 2.9 03:56:48 10° NNW 04:00:44 74° ENE 04:04:20 12° SSE
Cosmos 372 Rocket 4.0 03:59:17 10° NW 04:04:21 58° WSW 04:08:49 13° S
Cosmos 1470 3.5 04:02:44 24° SW 04:04:39 42° WNW 04:08:23 10° N
Cosmos 332 Rocket 3.9 04:02:48 23° SW 04:05:56 76° WNW 04:10:53 10° NNE
Cosmos 1703 3.4 04:04:16 10° NNW 04:08:09 57° W 04:10:23 23° S
H-2A R/B 2.7 04:04:58 10° N 04:08:43 51° WNW 04:10:50 23° SW
Cosmos 2123 Rocket 4.0 04:02:35 10° NNW 04:08:55 86° W 04:15:11 10° S
Cosmos 1633 Rocket 4.1 04:05:13 10° N 04:09:29 46° ENE 04:13:42 10° SE
CBERS-1 4.3 04:06:05 10° NNE 04:11:12 65° ESE 04:15:12 17° S
Cosmos 2369 4.2 04:05:42 10° NW 04:11:23 66° NE 04:17:01 10° SE
Meteor 1-16 Rocket 4.3 04:11:41 19° SSW 04:16:00 83° WNW 04:21:49 10° NNE
Cosmos 1500 Rocket 4.0 04:12:42 10° NNW 04:16:54 44° W 04:19:30 21° SSW
Cosmos 1656 4.3 04:12:03 10° NW 04:17:42 61° NE 04:23:22 10° ESE
Cosmos 1763 Rocket 3.4 04:15:21 21° SSW 04:18:49 83° ESE 04:23:56 10° NNE
Cosmos 2322 Rocket 4.3 04:13:51 10° NW 04:18:52 30° NNE 04:23:51 10° E
Cosmos 2084 Rocket 3.5 04:15:56 13° W 04:19:27 68° NNW 04:23:19 10° ENE
Cosmos 540 Rocket 4.3 04:15:29 14° S 04:19:32 44° ESE 04:24:23 10° NE
RESURS DK-1 4.3 04:16:33 10° W 04:20:07 26° NNW 04:23:42 10° NE
Cosmos 1821 Rocket 4.0 04:14:58 16° S 04:20:09 83° E 04:26:22 10° NNE
Cosmos-2242 3.5 04:18:28 21° SW 04:21:09 50° WNW 04:25:29 10° N
SL-16 R/B 2.6 04:17:13 11° S 04:23:17 64° WSW 04:29:29 10° NNW
NOSS 2-2 (D) 4.2 04:23:28 10° W 04:28:00 69° NNW 04:33:57 10° ENE
Cosmos 371 Rocket 3.5 04:24:50 19° SW 04:28:18 64° NW 04:33:11 10° NNE
NPP 3.7 04:23:01 10° NNE 04:28:28 86° ESE 04:32:53 16° SSW
Cosmos 1953 4.1 04:26:01 13° WSW 04:28:30 22° WNW 04:31:39 10° N
Cosmos 2058 3.6 04:25:25 10° NNW 04:29:14 37° W 04:31:34 20° SSW
Cosmos 2098 Rocket 3.5 04:24:41 14° S 04:29:30 77° E 04:33:54 10° NNE
SL-16 R/B 4.2 04:24:57 10° NW 04:30:03 32° NNE 04:35:08 10° E
IRS-1C 4.3 04:25:29 10° NNE 04:30:52 72° ESE 04:35:35 13° S
AQUA 3.9 04:26:08 10° NNE 04:30:57 81° ESE 04:34:51 16° SSW
Cosmos 1242 Rocket 2.4 04:30:07 21° SSW 04:32:25 85° WNW 04:35:59 10° NNE
Cosmos 1934 Rocket 4.0 04:27:14 13° S 04:32:41 81° E 04:38:49 10° NNE
Cosmos 1125 Rocket 4.2 04:29:23 10° NW 04:34:04 34° WSW 04:37:45 15° SSW
Cosmos 1603 4.2 04:29:24 14° WSW 04:34:13 55° NW 04:39:46 10° NE
Cosmos 2219 Rocket 4.2 04:32:02 10° WNW 04:36:48 27° N 04:41:33 10° NE
Cosmos 1908 3.5 04:37:21 13° S 04:40:39 65° E 04:44:28 10° NNE
Cosmos 468 Rocket 4.4 04:37:24 15° WSW 04:41:29 53° NW 04:46:36 10° NNE
SL-16 R/B 3.5 04:38:26 10° W 04:43:37 35° NNW 04:48:47 10° NE
Cosmos 1666 Rocket 3.5 04:39:13 10° NNW 04:43:40 85° W 04:48:08 10° S
Cosmos 1805 Rocket 3.6 04:41:00 10° NNW 04:45:26 61° W 04:49:48 10° S
Iridium 2 4.0 04:42:51 18° SSW 04:45:30 51° WNW 04:49:18 10° N
COSMOS 2406 4.1 04:42:32 10° S 04:47:50 42° ESE 04:53:12 10° NE
Cosmos 1300 4.4 04:44:38 10° SSE 04:48:03 31° E 04:51:29 10° NNE
NOSS 2-2 (C) 4.4 04:43:53 10° W 04:48:30 64° NNW 04:54:34 10° ENE
Cosmos 2221 2.6 04:44:55 13° S 04:48:50 81° E 04:53:11 10° NNE
Cosmos 1605 Rocket 4.2 04:42:48 10° S 04:49:12 77° E 04:55:37 10° NNE
Cosmos 2360 Rocket 4.3 04:47:24 10° NW 04:52:17 29° NNE 04:57:09 10° ENE
Cosmos 1933 Rocket 4.4 04:47:57 10° N 04:52:23 56° ENE 04:56:47 10° SSE
Resurs 1-4 Rocket 2.2 04:47:08 10° NNE 04:52:26 78° ESE 04:57:42 10° SSW
Lacrosse 5 2.3 04:47:54 10° W 04:52:36 39° SSW 04:57:18 10° SE
UNK 4.3 04:49:40 14° SSW 04:53:15 38° W 04:57:33 10° NNW
COBE Rocket 4.4 04:49:36 10° N 04:54:32 49° WNW 04:58:38 14° SW
Cosmos 1980 Rocket 3.0 04:49:11 10° NW 04:54:42 55° NE 05:00:13 10° ESE
Cosmos 1943 Rocket 3.9 04:53:33 10° WNW 04:55:53 13° W 04:57:35 11° WSW
IRS-P3 4.3 04:51:15 10° NNE 04:56:33 63° WNW 05:01:14 13° SW
Cosmos 304 Rocket 3.8 04:53:44 15° SW 04:57:44 83° WNW 05:02:35 10° NNE
Cosmos 2333 Rocket 4.2 04:55:56 10° WNW 05:00:43 27° N 05:05:30 10° NE
Cosmos 2278 3.7 04:55:10 10° NW 05:00:51 77° SW 05:06:30 10° SSE
MOZ.5/SAFIR/RUBIN 5/SL-8 3.9 04:59:40 10° S 05:04:16 55° W 05:08:56 10° NNW
Meteor 2-1 Rocket 4.2 04:59:32 12° SSW 05:04:39 71° WNW 05:10:12 10° NNE
Cosmos 1315 Rocket 3.0 05:01:40 10° NNW 05:05:39 52° W 05:09:34 10° S
CZ-2D R/B 2.2 05:01:42 10° NNE 05:07:10 88° WNW 05:12:31 10° SSW
Cosmos 1842 Rocket 4.2 05:04:12 14° SW 05:07:40 41° WNW 05:11:51 10° N
Okean O Rocket 4.2 05:04:39 10° NE 05:07:50 19° E 05:10:59 10° SE
Cosmos 841 Rocket 3.7 05:03:35 13° SW 05:08:10 63° NW 05:13:20 10° NNE
Cosmos 1697 Rocket 2.8 05:04:29 10° NW 05:10:12 84° NE 05:15:54 10° SE
ATLAS 2AS CENTAUR R/B 3.2 05:02:06 10° WNW 05:10:20 86° NNE 05:18:13 10° ESE
Cosmos 1626 4.1 05:08:30 10° NW 05:10:42 15° W 05:12:29 11° WSW
BREEZE-M DEB (TANK) 4.3 05:10:07 11° SSW 05:11:59 15° S 05:15:13 10° SE
ARIANE 5 R/B 2.6 05:07:13 10° NNE 05:12:29 89° NNW 05:17:46 10° SSW
NOSS 3-1 (A) 4.2 05:09:26 10° WNW 05:16:18 47° SW 05:24:00 10° SSE
CZ-2D R/B 3.9 05:12:21 10° NNE 05:16:23 59° ESE 05:20:19 10° S
Sich 1 3.4 05:12:46 10° NNW 05:17:02 47° W 05:21:13 10° SSW
SL-27 R/B 3.7 05:15:24 10° S 05:18:35 37° ESE 05:21:50 10° NE
NOSS 3-4 (A) 4.1 05:12:30 10° WNW 05:19:03 66° N 05:26:05 10° E
NOSS 3-4 (C) 4.1 05:12:36 10° WNW 05:19:09 66° N 05:26:11 10° E
Cosmos 2237 Rocket 4.1 05:16:33 10° WNW 05:21:17 26° N 05:26:02 10° NE
SL-24 R/B - RUBIN 2 4.5 05:19:03 10° WSW 05:25:25 77° NNW 05:31:08 10° ENE
Cosmos 2100 Rocket 4.4 05:20:42 10° S 05:27:01 69° E 05:33:21 10° NNE
USA 161 0.4 05:26:46 10° S 05:28:42 60° WSW 05:30:35 10° NNW
Helios 1A Rocket 4.2 05:26:22 10° N 05:29:51 27° WNW 05:33:20 10° WSW
Cosmos 1726 2.1 05:27:49 10° SSW 05:31:33 83° WNW 05:35:19 10° NNE
UNKNOWN OBJECT B 2.9 05:29:00 10° NNE 05:33:05 90° ESE 05:37:11 10° SSW
ADEOS Rocket 3.6 05:29:09 10° N 05:34:18 39° NW 05:39:20 10° WSW
Cosmos 1943 4.0 05:29:21 10° WSW 05:34:49 45° NW 05:40:19 10° NE
Tsikada Rocket 4.3 05:29:06 10° NNW 05:35:25 75° ENE 05:41:47 10° SSE
Cosmos 1470 Rocket 3.6 05:31:54 10° NNW 05:36:12 63° W 05:40:28 10° S
Cosmos 1892 2.7 05:32:39 10° NNW 05:36:31 86° WSW 05:40:21 10° S
Cosmos 2082 Rocket 4.3 05:32:21 10° SSE 05:36:42 23° ESE 05:41:03 10° NE
Cosmos 1400 Rocket 4.4 05:34:06 10° NW 05:36:49 18° W 05:39:33 10° SW
Cosmos 2285 Rocket 4.2 05:30:48 10° SSW 05:37:11 80° ESE 05:43:39 10° NNE
IRS-1D 3.8 05:34:21 10° NNE 05:39:21 57° WNW 05:44:26 10° SW
Meteor 2-3 Rocket 3.7 05:34:04 10° NNW 05:39:43 81° WSW 05:45:23 10° S
ADEOS II 3.1 05:35:40 10° NNE 05:40:47 48° E 05:45:52 10° S
Cosmos 2360 4.4 05:36:11 10° NW 05:41:56 82° NE 05:47:39 10° SE
Cosmos 2056 Rocket 3.9 05:41:26 10° NNW 05:46:48 73° NE 05:52:12 10° SE
Cosmos 1633 Rocket 3.9 05:43:15 10° NNW 05:47:11 32° W 05:51:03 10° SSW
Spot 4 Rocket 4.5 05:43:10 10° NNE 05:48:10 50° WNW 05:53:09 10° SW
Landsat 4 3.9 05:44:30 10° SSE 05:48:15 77° ENE 05:52:03 10° NNW
Cosmos 1825 3.5 05:45:00 10° N 05:48:41 45° ENE 05:52:22 10° SE
MOS 1 Rocket 3.6 05:45:34 10° N 05:49:42 47° WNW 05:53:55 10° SW
Cosmos 2173 Rocket 4.2 05:45:10 10° S 05:51:31 86° ESE 05:57:58 10° NNE
